Whitefield, NH

7:02 AM EDT on October 20, 2017 (GMT -0400)
Mount Washington Regional

Weather History for KHIE - June, 2013

Change the Weather History Date:

Thursday, June 6, 2013

  Actual Average Record
Temperature  
Mean Temperature 58 °F -  
Max Temperature 72 °F 68 °F 79 °F (1999)
Min Temperature 46 °F 40 °F 33 °F (1997)
Degree Days  
Heating Degree Days 6    
Growing Degree Days 8 (Base 50)    
Moisture  
Dew Point 43 °F    
Average Humidity 60    
Maximum Humidity 86    
Minimum Humidity 36    
Precipitation  
Precipitation 0.01 in - - ()
Sea Level Pressure  
Sea Level Pressure 30.16 in    
Wind  
Wind Speed 2 mph (SE)    
Max Wind Speed 10 mph    
Max Gust Speed 18 mph    
Visibility 10 miles    
Events Rain    
Averages and records for this station are not official NWS values.
T = Trace of Precipitation, MM = Missing Value Source: NWS Daily Summary

Daily Weather History Graph

Daily Weather History Graph

Search for Another Location

Airport or City:

Trip Planner

Search our weather history database for the weather conditions in past years. The results will help you decide how hot, cold, wet, or windy it might be!

Date:

Astronomy

Jun. 06, 2013 Rise Set
Actual Time 5:02 AM EDT 8:27 PM EDT
Civil Twilight 4:26 AM EDT 9:03 PM EDT
Nautical Twilight 3:39 AM EDT 9:51 PM EDT
Astronomical Twilight 2:39 AM EDT 10:51 PM EDT
Moon 3:46 AM EDT (6/6) 6:43 PM EDT (6/6)
Length of Visible Light 16h 37m
Length of Day
15h 24m
Waning Crescent, 4% of the Moon is Illuminated
Jun 6
Waning Crescent
Jun 8
New
Jun 16
First Quarter
Jun 23
Full
Jun 30
Last Quarter

Hourly Weather History & Observations

Time (EDT) Temp. Dew Point Humidity Pressure Visibility Wind Dir Wind Speed Gust Speed Precip Events Conditions
12:52 AM 46.9 °F 41.0 °F 80% 30.19 in 10.0 mi Calm Calm - N/A   Clear
1:52 AM 46.0 °F 42.1 °F 86% 30.19 in 10.0 mi Calm Calm - N/A   Clear
2:52 AM 46.0 °F 42.1 °F 86% 30.19 in 10.0 mi Calm Calm - N/A   Overcast
3:52 AM 46.9 °F 43.0 °F 86% 30.19 in 10.0 mi Calm Calm - N/A   Overcast
4:52 AM 46.9 °F 41.0 °F 80% 30.19 in 10.0 mi Calm Calm - N/A   Mostly Cloudy
5:52 AM 46.9 °F 43.0 °F 86% 30.20 in 10.0 mi Calm Calm - N/A   Mostly Cloudy
6:52 AM 48.0 °F 41.0 °F 77% 30.21 in 10.0 mi Calm Calm - N/A   Scattered Clouds
7:52 AM 50.0 °F 42.1 °F 74% 30.23 in 10.0 mi Calm Calm - N/A   Overcast
8:52 AM 52.0 °F 41.0 °F 66% 30.23 in 10.0 mi Calm Calm - N/A   Overcast
9:52 AM 57.9 °F 44.1 °F 60% 30.21 in 10.0 mi Calm Calm - N/A   Mostly Cloudy
10:52 AM 64.9 °F 37.0 °F 36% 30.18 in 10.0 mi Variable 6.9 mph - N/A   Mostly Cloudy
11:52 AM 66.9 °F 39.0 °F 36% 30.17 in 10.0 mi NE 8.1 mph - N/A   Overcast
12:52 PM 69.1 °F 44.1 °F 40% 30.15 in 10.0 mi North 10.4 mph - N/A   Clear
1:52 PM 71.1 °F 43.0 °F 36% 30.13 in 10.0 mi Calm Calm - N/A   Clear
2:52 PM 70.0 °F 42.1 °F 36% 30.12 in 10.0 mi Variable 3.5 mph - N/A   Overcast
3:52 PM 68.0 °F 42.1 °F 39% 30.11 in 10.0 mi SE 9.2 mph 16.1 mph N/A   Overcast
4:52 PM 66.9 °F 44.1 °F 44% 30.12 in 10.0 mi SSE 8.1 mph 16.1 mph N/A   Mostly Cloudy
5:52 PM 64.9 °F 42.1 °F 43% 30.12 in 10.0 mi South 10.4 mph - N/A   Overcast
6:52 PM 64.0 °F 41.0 °F 43% 30.14 in 10.0 mi South 5.8 mph - N/A   Scattered Clouds
7:52 PM 62.1 °F 42.1 °F 48% 30.13 in 10.0 mi Calm Calm - N/A   Overcast
8:52 PM 62.1 °F 42.1 °F 48% 30.11 in 10.0 mi NE 10.4 mph - N/A   Overcast
9:52 PM 61.0 °F 46.0 °F 58% 30.12 in 10.0 mi Calm Calm - N/A   Mostly Cloudy
10:52 PM 57.9 °F 48.0 °F 70% 30.13 in 10.0 mi South 8.1 mph 18.4 mph 0.00 in Rain Light Rain
11:52 PM 55.9 °F 48.9 °F 77% 30.11 in 10.0 mi Calm Calm - 0.01 in   Overcast